Sanborn, NY

9:12 PM EST on February 23, 2017 (GMT -0500)
Niagara Falls International

Weather History for KIAG - February, 2013

Change the Weather History Date:

Thursday, February 21, 2013

  Actual Average Record
Temperature  
Mean Temperature 19 °F -  
Max Temperature 23 °F 33 °F 66 °F (1997)
Min Temperature 15 °F 18 °F 0 °F (2015)
Degree Days  
Heating Degree Days 46    
Moisture  
Dew Point 11 °F    
Average Humidity 70    
Maximum Humidity 77    
Minimum Humidity 60    
Precipitation  
Precipitation 0.00 in - - ()
Sea Level Pressure  
Sea Level Pressure 30.25 in    
Wind  
Wind Speed 14 mph (WNW)    
Max Wind Speed 24 mph    
Max Gust Speed 31 mph    
Visibility 7 miles    
Events Snow    
Averages and records for this station are not official NWS values.
T = Trace of Precipitation, MM = Missing Value Source: NWS Daily Summary

Daily Weather History Graph

Daily Weather History Graph

Search for Another Location

Airport or City:

Trip Planner

Search our weather history database for the weather conditions in past years. The results will help you decide how hot, cold, wet, or windy it might be!

Date:

Astronomy

Feb. 21, 2013 Rise Set
Actual Time 7:04 AM EST 5:55 PM EST
Civil Twilight 6:35 AM EST 6:23 PM EST
Nautical Twilight 6:02 AM EST 6:57 PM EST
Astronomical Twilight 5:29 AM EST 7:29 PM EST
Moon 2:04 PM EST (2/21) 4:11 AM EST (2/21)
Length of Visible Light 11h 48m
Length of Day
10h 50m
Waxing Gibbous, 83% of the Moon is Illuminated
Feb 21
Waxing Gibbous
Feb 25
Full
Mar 4
Last Quarter
Mar 11
New
Mar 19
First Quarter

Hourly Weather History & Observations

Time (EST) Temp. Windchill Dew Point Humidity Pressure Visibility Wind Dir Wind Speed Gust Speed Precip Events Conditions
12:50 AM 19.4 °F 5.0 °F 12.2 °F 74% 30.07 in 6.0 mi West 16.1 mph 24.2 mph 0.00 in Snow Light Snow
12:53 AM 19.0 °F 5.6 °F 12.0 °F 74% 30.13 in 3.0 mi West 13.8 mph 24.2 mph 0.00 in Snow Light Snow
12:58 AM 19.4 °F 4.1 °F 12.2 °F 74% 30.07 in 1.8 mi West 18.4 mph 21.9 mph 0.00 in Snow Light Snow
1:01 AM 19.4 °F 5.0 °F 12.2 °F 74% 30.07 in 2.0 mi West 16.1 mph 24.2 mph 0.00 in Snow Light Snow
1:06 AM 19.4 °F 5.5 °F 12.2 °F 74% 30.07 in 3.0 mi West 15.0 mph 24.2 mph 0.00 in Snow Light Snow
1:33 AM 19.4 °F 4.5 °F 12.2 °F 74% 30.07 in 2.0 mi West 17.3 mph - 0.00 in Snow Light Snow
1:51 AM 19.4 °F 6.0 °F 12.2 °F 74% 30.07 in 3.0 mi West 13.8 mph 23.0 mph 0.00 in Snow Light Snow
1:53 AM 19.0 °F 4.5 °F 12.9 °F 77% 30.14 in 4.0 mi West 16.1 mph 23.0 mph 0.00 in Snow Light Snow
2:51 AM 19.4 °F 6.6 °F 12.2 °F 74% 30.08 in 2.5 mi WNW 12.7 mph - 0.00 in Snow Light Snow
2:53 AM 19.9 °F 6.7 °F 12.9 °F 74% 30.14 in 3.0 mi WNW 13.8 mph - 0.00 in Snow Light Snow
3:17 AM 19.4 °F 5.5 °F 12.2 °F 74% 30.08 in 10.0 mi NW 15.0 mph 21.9 mph 0.00 in   Overcast
3:53 AM 19.9 °F 2.8 °F 10.9 °F 68% 30.15 in 10.0 mi NW 24.2 mph 31.1 mph 0.00 in   Overcast
4:09 AM 19.4 °F 4.1 °F 10.4 °F 68% 30.09 in 10.0 mi NW 18.4 mph 25.3 mph 0.00 in   Overcast
4:53 AM 18.0 °F 1.3 °F 10.0 °F 71% 30.19 in 8.0 mi NW 20.7 mph 27.6 mph 0.00 in Snow Light Snow
5:53 AM 17.1 °F 3.0 °F 9.0 °F 71% 30.21 in 10.0 mi NW 13.8 mph - 0.00 in   Overcast
6:53 AM 16.0 °F 0.6 °F 8.1 °F 71% 30.25 in 4.0 mi NW 16.1 mph - 0.00 in Snow Light Snow
6:59 AM 15.8 °F 0.3 °F 8.6 °F 73% 30.18 in 4.0 mi NW 16.1 mph - 0.00 in Snow Light Snow
7:38 AM 15.8 °F 0.3 °F 8.6 °F 73% 30.20 in 7.0 mi NW 16.1 mph - 0.00 in Snow Light Snow
7:53 AM 16.0 °F 0.6 °F 8.1 °F 71% 30.27 in 9.0 mi NW 16.1 mph - 0.00 in Snow Light Snow
8:53 AM 15.1 °F 0.5 °F 7.0 °F 70% 30.30 in 5.0 mi NNW 13.8 mph - 0.00 in Snow Light Snow
9:53 AM 15.1 °F -0.6 °F 8.1 °F 74% 30.34 in 4.0 mi NW 16.1 mph - 0.00 in Snow Light Snow
9:58 AM 15.8 °F -1.1 °F 6.8 °F 68% 30.27 in 5.0 mi NW 19.6 mph - 0.00 in Snow Light Snow
10:53 AM 16.0 °F 1.7 °F 8.1 °F 71% 30.34 in 5.0 mi WNW 13.8 mph - 0.00 in Snow Light Snow
11:12 AM 15.8 °F 0.9 °F 8.6 °F 73% 30.26 in 5.0 mi WNW 15.0 mph - 0.00 in Snow Light Snow
11:53 AM 18.0 °F 5.4 °F 9.0 °F 68% 30.33 in 10.0 mi WNW 11.5 mph - 0.00 in Snow Light Snow
12:14 PM 17.6 °F 3.2 °F 8.6 °F 68% 30.26 in 9.0 mi NW 15.0 mph - 0.00 in Snow Light Snow
12:53 PM 19.4 °F 6.0 °F 8.6 °F 63% 30.27 in 10.0 mi WNW 13.8 mph - N/A Snow Light Snow
12:57 PM 19.4 °F 8.6 °F 8.6 °F 63% 30.27 in 10.0 mi NW 9.2 mph - 0.00 in   Mostly Cloudy
1:37 PM 19.4 °F 7.9 °F 10.4 °F 68% 30.26 in 10.0 mi NW 10.4 mph - 0.00 in   Mostly Cloudy
1:53 PM 19.9 °F 7.9 °F 10.0 °F 65% 30.33 in 10.0 mi NW 11.5 mph - 0.00 in   Mostly Cloudy
2:09 PM 19.4 °F 8.6 °F 10.4 °F 68% 30.27 in 10.0 mi WNW 9.2 mph - 0.00 in Snow Light Snow
2:41 PM 21.2 °F 10.1 °F 10.4 °F 63% 30.28 in 9.0 mi NW 10.4 mph - 0.00 in   Overcast
2:53 PM 21.0 °F 11.4 °F 10.0 °F 63% 30.34 in 10.0 mi West 8.1 mph - 0.00 in   Overcast
3:53 PM 23.0 °F 13.9 °F 12.0 °F 63% 30.35 in 10.0 mi West 8.1 mph - 0.00 in   Mostly Cloudy
4:53 PM 23.0 °F 15.8 °F 10.9 °F 60% 30.36 in 10.0 mi West 5.8 mph - N/A   Mostly Cloudy
5:53 PM 23.0 °F 17.0 °F 10.9 °F 60% 30.38 in 10.0 mi West 4.6 mph - N/A   Mostly Cloudy
6:53 PM 21.0 °F 11.4 °F 12.9 °F 71% 30.43 in 10.0 mi SW 8.1 mph - N/A   Mostly Cloudy
7:53 PM 21.0 °F 12.4 °F 12.9 °F 71% 30.45 in 10.0 mi SW 6.9 mph - N/A   Mostly Cloudy
8:45 PM 21.2 °F 16.4 °F 12.2 °F 68% 30.37 in 10.0 mi WSW 3.5 mph - N/A   Overcast
8:53 PM 21.0 °F - 12.9 °F 71% 30.44 in 10.0 mi Calm Calm - N/A   Overcast
9:53 PM 21.9 °F 17.2 °F 12.9 °F 68% 30.44 in 10.0 mi WSW 3.5 mph - N/A   Overcast
10:53 PM 21.9 °F - 12.9 °F 68% 30.43 in 10.0 mi Calm Calm - N/A   Overcast
11:53 PM 21.9 °F - 14.0 °F 72% 30.42 in 10.0 mi Calm Calm - N/A   Overcast